Regional Weather Roundup
Issued by NWS Wakefield, VA

Home | Current Version | Previous Version | Graphics & Text | Print | Product List | Glossary On
Versions: 1 2 3 4 5 6 7 8 9 10 11 12 13 14 15 16 17 18 19 20 21 22 23 24 25 26 27 28 29 30 31 32 33 34 35 36 37 38 39 40 41 42 43 44 45 46 47 48 49 50
000
ASUS41 KAKQ 270315
RWRAKQ

REGIONAL WEATHER ROUNDUP
NATIONAL WEATHER SERVICE WAKEFIELD VA
1100 PM EDT FRI MAY 26 2017

Note: "fair" indicates few or no clouds below 12,000 feet with no
significant weather and/or obstructions to visibility. * = Denotes
station may not report precipitation (e.g., rain,snow,etc.),
thunder or fog.

VAZ042-051-052>054-056-270400-
NORTHERN VIRGINIA

CITY           SKY/WX    TMP DP  RH WIND       PRES   REMARKS
WASH NATIONAL  CLEAR     68  54  60 N3        29.91R
DULLES         PTCLDY    60  54  80 E5        29.91R
FORT BELVOIR   PTCLDY    60  56  86 CALM      29.90R
QUANTICO       CLEAR     63  59  87 NW3       29.91R
FREDERICKSBRG* CLEAR     62  57  84 CALM      29.90R
STAFFORD*      CLEAR     57  57 100 CALM      29.95R
WARRENTON      CLEAR     57  54  88 CALM      29.90S
CULPEPER*      CLEAR     58  57  95 CALM      29.92R
MANASSAS*      CLEAR     59  56  89 SE3       29.91R
LEESBURG*      CLEAR     63  59  88 CALM      29.92R
WINCHESTER     MOCLDY    57  54  88 CALM      29.92R
FRONT ROYAL*   CLEAR     63  54  72 SW5       29.90S
LURAY*         CLEAR     61  54  77 S5        29.93R
$$

VAZ048-049-060>072-079>083-270400-
CENTRAL AND SOUTH CENTRAL VIRGINIA

CITY           SKY/WX    TMP DP  RH WIND       PRES   REMARKS
RICHMOND       PTCLDY    63  58  83 CALM      29.91R
CHESTERFIELD*  NOT AVBL
PETERSBURG*    CLEAR     57  57  97 CALM      29.93R
HANOVER        CLEAR     61  54  77 CALM      29.92R
TAPPAHANNOCK*  CLEAR     60  60 100 CALM      29.92R
QUINTON*       FAIR      62  60  93 CALM      29.91R
CHARLOTTSVILLE CLEAR     63  54  72 S5        29.92R
GORDONSVILLE*  CLEAR     59  57  94 CALM      29.92R
ORANGE*        CLEAR     61  54  77 CALM      29.92R
LOUISA*        CLEAR     59  57  94 CALM      29.91R
BUMPASS*       FAIR      60  58  93 CALM      29.91R
FARMVILLE*     CLEAR     66  52  59 W3        29.92R
CREWE*         FAIR      60  56  87 CALM      29.93R
FORT PICKETT*  FAIR      64  57  78 CALM      29.94R
CHASE CITY*    FAIR      62  61  95 CALM      29.95R
CLARKSVILLE*   FAIR      63  63 100 CALM      29.94R
SOUTH HILL*    CLEAR     60  60 100 CALM      30.00R
LAWRENCEVILLE* FAIR      62  58  86 CALM      29.94R
EMPORIA*       CLEAR     59  57  94 CALM      29.95R
$$

VAZ088>098-270400-
SOUTHEAST VIRGINIA

CITY           SKY/WX    TMP DP  RH WIND       PRES   REMARKS
NORFOLK        CLEAR     70  57  63 SW5       29.91R
VIRGINIA BEACH CLEAR     66  55  67 SW6       29.90R
NORFOLK NAVAL  CLEAR     69  55  60 SW3       29.93R
WEST POINT*    CLEAR     61  59  93 CALM      29.92R
SALUDA*        FAIR      62  60  91 CALM      29.91R
NEWPORT NEWS   CLEAR     64  58  80 CALM      29.92R
LANGLEY AFB    CLEAR     67  59  76 W3        29.91R
FORT EUSTIS    CLEAR     67  59  75 SW3       29.89R
WILLIAMSBURG*  CLEAR     66  61  82 CALM      29.92S
HR EXEC AP*    FAIR      59  55  88 CALM      29.91R
FRANKLIN*      CLEAR     63  59  88 CALM      29.93R
US460-WAKEFLD  CLEAR     63  61  93 CALM      29.92R
$$

VAZ020-022-025-037-045-270400-
WEST CENTRAL AND SOUTHWEST VIRGINIA

CITY           SKY/WX    TMP DP  RH WIND       PRES   REMARKS
STAUNTON*      CLEAR     60  53  76 CALM      29.96S
WAYNESBORO*    CLEAR     62  55  77 SW5       29.96R
HOT SPRINGS VA CLEAR     59  45  58 W17G24    30.04R
LYNCHBURG      CLEAR     62  54  74 CALM      29.96R
DANVILLE       CLEAR     60  60 100 CALM      29.95R
SOUTH BOSTON*  FAIR      60  59  96 CALM      29.94R
MARTINSVILLE   CLEAR     58  57  94 CALM      29.99R
ROANOKE        CLEAR     66  53  63 CALM      29.98R
BLACKSBURG     CLEAR     58  52  83 CALM      30.04R
DUBLIN*        CLEAR     61  52  71 W5        30.03R
MARION*        CLEAR     58  53  83 CALM      30.08R
HILLSVILLE*    CLEAR     62  48  60 CALM      30.04R
RICHLANDS*     FAIR      64  53  68 SW6       30.05R
WISE*          CLEAR     63  54  72 CALM      30.07R
ABINGDON*      CLEAR     62  57  84 CALM      30.04R
$$

MDZ021>025-VAZ099-100-270400-
SOUTHERN MARYLAND AND THE DELMARVA PENINSULA

CITY           SKY/WX    TMP DP  RH WIND       PRES   REMARKS
PATUXENT RIVER CLEAR     63  61  93 CALM      29.90R
BAY BRIDGE APT CLEAR     66  55  68 W6        29.89R
LEONARDTOWN    CLEAR     61  57  88 CALM      29.92R
DOVER          CLEAR     66  58  75 W9        29.86R
GEORGETOWN     CLEAR     68  54  60 W3        29.88R
EASTON         CLEAR     67  55  64 NW5       29.93S
CAMBRIDGE      CLEAR     68  55  64 NW6       29.90R
SALISBURY      CLEAR     68  54  60 W7        29.89R
OCEAN CITY     PTCLDY    68  53  58 NW8       29.89R
WALLOPS ISLAND PTCLDY    66  59  78 SW3       29.90R
ACCOMACK*      PTCLDY    65  59  81 CALM      29.91R
$$

NCZ012>017-030>032-270400-
NORTH CENTRAL AND EASTERN NORTH CAROLINA

CITY           SKY/WX    TMP DP  RH WIND       PRES   REMARKS
ROANOKE RAPIDS FAIR      64  59  82 CALM      29.94R
RALEIGH        PTCLDY    68  59  73 CALM      29.96R
ELIZABETH CITY CLEAR     67  62  84 SW6       29.93R
AHOSKIE*       NOT AVBL
EDENTON*       CLEAR     69  63  80 CALM      29.95R
CURRITUCK*     CLEAR     69  60  75 CALM      29.93S
KILL DEVIL HLS CLEAR     71  60  68 CALM      29.93R
MANTEO         CLEAR     71  62  73 CALM      29.94S
CAPE HATTERAS  CLEAR     73  68  84 W7        29.95R
TARBORO*       NOT AVBL
GOLDSBORO      NOT AVBL
WASHINGTON     CLEAR     65  60  81 CALM      29.95S
GREENVILLE     CLEAR     64  61  88 CALM      29.97R
NEW BERN       CLEAR     65  62  90 CALM      29.97R
WILMINGTON     CLEAR     70  65  84 SW6       29.97R
$$

VAZ048-270400-
ELSEWHERE

CITY           SKY/WX    TMP DP  RH WIND       PRES   REMARKS
HARRISBURG PA  PTCLDY    64  53  67 NW10      29.87R
BALTIMORE      PTCLDY    60  56  86 SW3       29.89R
ANNAPOLIS      CLEAR     67  55  65 W6        29.89R
ANDREWS AFB    CLEAR     59  55  85 CALM      29.90R
PHILADELPHIA   MOCLDY    69  53  56 NW10      29.84R
HENDERSON NC   CLEAR     63  56  79 SW3       29.95R
GREENSBORO     CLEAR     68  57  68 SW5       29.96R
ROCKY MOUNT    CLEAR     63  61  93 CALM      29.95R
$$

VAZ100-270400-
MARINE

STATION/POSITION TIME  TEMP    WIND        PRES    WAVE   SWELL
                       AIR SEA DIR/SP/G            HT/PER HT/PER
                 (UTC) (F)     (DEG/KT/KT) (MB)    (FT/S) (FT/S)
CAPE MAY NJ      0248   65 63  290/  5/  9 1010.7R
LEWES DE         0248   68 64  300/ 11/ 12 1011.3R
15NM E FENWICK I 0250   64 58  270/ 10/ 12 1011.6R   4/ 7   3/ 7
WACHAPREAGUE VA  0248   67 69   CALM  /  1 1012.3R
THOMAS POINT MD  0300   68 64  270/  6/  6   N/A
GOOSES REEF MD   0300   68 63  330/  6/  6 1013.2    1
COVE POINT MD    0248   67     350/  5/  5 1013.1R
SOLOMONS ISLAND  0236   69 67  310/  4/  5   N/A
BISHOPS HEAD MD  0248   69 71  340/  5/  7 1012.9R
PINEY POINT MD   0248          360/  4/  5   N/A
POTOMAC MD       0250   69     320/  2/  2 1011.7R
CAMBRIDGE MD     0236   69 68                N/A
LEWISETTA VA     0248   68 69  260/  2/  3 1012.5R
RAPPAHANNOCK LGT 0248             CALM     1013.4R
STINGRAY PT      0250   71     250/  4/  4 1012.3R
YORK RVR RNG VA  0248   71     280/  7/  8 1012.2R
YORKTOWN VA      0248   72 69  290/  2/  4 1012.6R
JAMESTOWN VA     0250   69     200/  2/  2   N/A
DOMINION TERM VA 0248   71     220/  5/  6 1012.9R
KIPTOPEKE VA     0248      69  230/  4/  6   N/A
CHES BAY BRIDGE  0248   72 67  240/  9/ 10 1012.6R
CAPE HENRY VA    0248   72     220/  8/  9   N/A
WILLOUBY STN VA  0248   72     220/ 11/ 11 1012.6R
S CRANEY ISL VA  0248   72     240/  4/  5 1012.7R
CAPE HENRY BUOY  0242      63                N/A     2/ 8
1ST LANDING BUOY 0300   71 66              1012.8    1/ 4
CAPE CHARLES BUO 0251      63                N/A     2/ 8
64NM E OF VA BCH 0250   65 63  240/  6/  8 1013.3R   3/ 8   3/ 8
DUCK PIER NC     0248   72 63  240/  5/  6 1013.0R
44100 DUCK FRF   0235      65                N/A     2/ 8
44056 DUCK FRF   0230      63                N/A     1/ 8
OREGON INLET NC  0236   71 74  210/  5/  5 1013.6R
HATTERAS NC      0248   72 74  230/  6/  8 1014.0R
DIAMOND SHLS NC  0250   75 79  250/ 16/ 17 1014.0R   6/ 6   2/12
CAPE LOOKOUT NC  0200   73     240/ 11/ 14 1013.8R
$$



USA.gov is the U.S. government's official web portal to all federal, state and local government web resources and services.